Date String (YYYY-MM-DD hh:mm:ss) UTC,Instrument flags,Ambient pressure (hPa),Sample flow (lpm),Bypass flow (lpm),Sample temperature (°C),Ambient temperature (°C),ASC tube jacket temperature (°C),LED temperature (°C),Box temperature (°C),Sample RH (%),Span deviation,Mass concentration (μg/m³),Mass concentration (μg/m³),Mass concentration (μg/m³)
DateTimeUTC,F1_M11,P_M11,Q1_M11,Q2_M11,T1_M11,T2_M11,T3_M11,T4_M11,T5_M11,U1_M11,ZSPAN_M11,X0_M11,X2_M11,X1_M11
2021-11-23 00:00:00,,0829.3,4.99,0.00,30.3,29.2,00.0,39.3,32.0,07.2,0004.6,0023.88,0008.31,0006.89
2021-11-23 00:01:00,,0829.3,5.01,0.00,30.3,29.3,00.0,39.3,32.0,07.2,0004.9,0023.51,0008.35,0006.92
2021-11-23 00:02:00,,0829.2,5.01,0.00,30.3,29.3,00.0,39.3,32.0,07.3,0005.0,0022.68,0008.29,0006.89
2021-11-23 00:03:00,,0829.2,4.99,0.00,30.3,29.3,00.0,39.3,32.0,07.3,0005.0,0020.95,0008.28,0006.87
2021-11-23 00:04:00,,0829.3,5.01,0.00,30.3,29.3,00.0,39.3,32.0,07.2,0005.2,0020.35,0008.30,0006.87
2021-11-23 00:05:00,,0829.2,5.00,0.00,30.3,29.3,00.0,39.3,32.0,07.3,0005.1,0020.61,0008.26,0006.85
2021-11-23 00:06:00,,0829.2,5.00,0.00,30.3,29.3,00.0,39.3,32.0,07.3,0005.2,0019.35,0008.29,0006.84
2021-11-23 00:07:00,,0829.3,5.02,0.00,30.3,29.3,00.0,39.3,32.0,07.3,0005.6,0018.95,0008.30,0006.84
2021-11-23 00:08:00,,0829.2,4.99,0.00,30.3,29.4,00.0,39.3,32.0,07.2,0005.7,0019.45,0008.28,0006.80
2021-11-23 00:09:00,,0829.3,4.99,0.00,30.3,29.4,00.0,39.3,32.0,07.2,0005.8,0020.47,0008.25,0006.74
2021-11-23 00:10:00,,0829.2,5.00,0.00,30.3,29.4,00.0,39.3,32.0,07.1,0005.7,0021.39,0008.22,0006.70
2021-11-23 00:11:00,,0829.2,5.02,0.00,30.3,29.4,00.0,39.3,32.0,07.1,0005.5,0021.22,0008.19,0006.67
2021-11-23 00:12:00,,0829.2,5.01,0.00,30.3,29.4,00.0,39.3,32.0,07.2,0004.9,0022.06,0008.22,0006.72
2021-11-23 00:13:00,,0829.2,5.00,0.00,30.3,29.4,00.0,39.3,32.0,07.2,0004.9,0023.55,0008.26,0006.75
2021-11-23 00:14:00,,0829.2,4.99,0.00,30.3,29.4,00.0,39.3,32.0,07.1,0005.0,0024.10,0008.31,0006.78
2021-11-23 00:15:00,,0829.3,5.01,0.00,30.3,29.4,00.0,39.3,32.0,07.1,0004.2,0024.83,0008.33,0006.83
2021-11-23 00:16:00,,0829.3,5.00,0.00,30.3,29.3,00.0,39.3,32.0,07.1,0003.6,0025.82,0008.35,0006.86
2021-11-23 00:17:00,,0829.3,5.01,0.00,30.3,29.3,00.0,39.3,31.9,07.1,0003.2,0026.26,0008.36,0006.88
2021-11-23 00:18:00,,0829.3,4.99,0.00,30.3,29.3,00.0,39.3,31.9,07.1,0002.8,0025.72,0008.40,0006.90
2021-11-23 00:19:00,,0829.3,5.00,0.00,30.3,29.3,00.0,39.3,31.9,07.2,0002.9,0026.76,0008.49,0006.96
2021-11-23 00:20:00,,0829.2,5.00,0.00,30.3,29.3,00.0,39.3,31.9,07.3,0002.9,0026.95,0008.59,0007.07
2021-11-23 00:21:00,,0829.2,4.99,0.00,30.3,29.3,00.0,39.3,31.9,07.3,0004.0,0026.54,0008.69,0007.19
2021-11-23 00:22:00,,0829.2,5.00,0.00,30.3,29.3,00.0,39.3,31.9,07.3,0003.9,0027.08,0008.89,0007.35
2021-11-23 00:23:00,,0829.2,5.01,0.00,30.3,29.3,00.0,39.3,31.9,07.3,0004.3,0026.81,0008.91,0007.40
2021-11-23 00:24:00,,0829.2,5.00,0.00,30.2,29.3,00.0,39.3,31.9,07.4,0003.9,0026.11,0009.05,0007.49
2021-11-23 00:25:00,,0829.2,5.01,0.00,30.2,29.2,00.0,39.3,31.9,07.3,0003.3,0026.75,0009.19,0007.61
2021-11-23 00:26:00,,0829.2,4.98,0.00,30.2,29.2,00.0,39.3,31.9,07.3,0003.2,0026.46,0009.32,0007.73
2021-11-23 00:27:00,,0829.2,5.00,0.00,30.2,29.2,00.0,39.3,31.9,07.3,0003.6,0026.68,0009.47,0007.86
2021-11-23 00:28:00,,0829.2,5.02,0.00,30.2,29.2,00.0,39.3,31.9,07.3,0003.6,0026.84,0009.53,0007.97
2021-11-23 00:29:00,,0829.3,5.00,0.00,30.2,29.2,00.0,39.3,31.9,07.2,0003.7,0027.24,0009.54,0008.04
2021-11-23 00:30:00,,0829.3,5.00,0.00,30.2,29.2,00.0,39.3,31.9,07.3,0003.9,0026.18,0009.54,0008.10
2021-11-23 00:31:00,,0829.3,5.01,0.00,30.2,29.2,00.0,39.3,31.9,07.4,0004.3,0025.68,0009.64,0008.18
2021-11-23 00:32:00,,0829.2,4.99,0.00,30.2,29.2,00.0,39.3,31.9,07.4,0004.1,0024.77,0009.75,0008.26
2021-11-23 00:33:00,,0829.2,5.00,0.00,30.2,29.2,00.0,39.3,31.9,07.4,0003.9,0023.91,0009.79,0008.33
2021-11-23 00:34:00,,0829.3,5.01,0.00,30.2,29.2,00.0,39.3,31.8,07.4,0003.7,0024.76,0009.93,0008.40
2021-11-23 00:35:00,,0829.3,5.00,0.00,30.2,29.2,00.0,39.3,31.8,07.4,0003.8,0026.62,0009.95,0008.43
2021-11-23 00:36:00,,0829.3,5.00,0.00,30.2,29.2,00.0,39.3,31.8,07.4,0003.7,0026.32,0009.88,0008.38
2021-11-23 00:37:00,,0829.3,4.99,0.00,30.2,29.2,00.0,39.3,31.8,07.4,0004.0,0026.27,0009.83,0008.30
2021-11-23 00:38:00,,0829.2,5.00,0.00,30.2,29.1,00.0,39.3,31.8,07.4,0004.4,0024.99,0009.80,0008.26
2021-11-23 00:39:00,,0829.3,4.99,0.00,30.2,29.1,00.0,39.3,31.8,07.4,0004.3,0024.65,0009.81,0008.27
2021-11-23 00:40:00,,0829.2,4.99,0.00,30.1,29.1,00.0,39.2,31.7,07.4,0004.4,0024.31,0009.89,0008.28
2021-11-23 00:41:00,,0829.2,5.00,0.00,30.1,29.1,00.0,39.2,31.7,07.4,0004.0,0024.63,0009.95,0008.26
2021-11-23 00:42:00,,0829.2,5.00,0.00,30.1,29.1,00.0,39.2,31.7,07.5,0003.3,0024.52,0009.89,0008.17
2021-11-23 00:43:00,,0829.2,5.00,0.00,30.1,29.1,00.0,39.2,31.8,07.5,0003.4,0025.36,0009.79,0008.09
2021-11-23 00:44:00,,0829.3,4.99,0.00,30.1,29.1,00.0,39.2,31.8,07.5,0004.4,0026.98,0009.69,0007.99
2021-11-23 00:45:00,,0829.2,4.98,0.00,30.1,29.1,00.0,39.2,31.7,07.5,0004.1,0027.34,0009.55,0007.91
2021-11-23 00:46:00,,0829.2,5.00,0.00,30.1,29.1,00.0,39.2,31.7,07.5,0004.2,0025.70,0009.47,0007.87
2021-11-23 00:47:00,,0829.3,5.01,0.00,30.1,29.1,00.0,39.2,31.7,07.5,0004.1,0024.84,0009.45,0007.86
2021-11-23 00:48:00,,0829.3,4.99,0.00,30.1,29.1,00.0,39.2,31.7,07.5,0003.6,0024.82,0009.41,0007.84
2021-11-23 00:49:00,,0829.2,5.01,0.00,30.1,29.1,00.0,39.2,31.7,07.5,0003.1,0025.34,0009.34,0007.79
2021-11-23 00:50:00,,0829.2,5.01,0.00,30.1,29.1,00.0,39.2,31.7,07.5,0003.3,0025.67,0009.29,0007.71
2021-11-23 00:51:00,,0829.2,5.00,0.00,30.1,29.0,00.0,39.2,31.7,07.5,0003.8,0026.78,0009.27,0007.70
2021-11-23 00:52:00,,0829.2,4.99,0.00,30.1,29.0,00.0,39.2,31.7,07.6,0004.4,0027.42,0009.25,0007.73
2021-11-23 00:53:00,,0829.2,5.01,0.00,30.1,29.0,00.0,39.2,31.7,07.6,0004.6,0026.85,0009.27,0007.76
2021-11-23 00:54:00,,0829.3,4.99,0.00,30.1,29.0,00.0,39.2,31.7,07.5,0004.7,0027.84,0009.32,0007.77
2021-11-23 00:55:00,,0829.3,5.01,0.00,30.0,29.0,00.0,39.2,31.7,07.5,0004.7,0027.26,0009.34,0007.76
2021-11-23 00:56:00,,0829.3,4.98,0.00,30.0,29.0,00.0,39.2,31.7,07.5,0004.9,0026.48,0009.38,0007.76
2021-11-23 00:57:00,,0829.2,5.01,0.00,30.0,29.0,00.0,39.1,31.7,07.5,0004.8,0026.99,0009.44,0007.75
2021-11-23 00:58:00,,0829.3,5.00,0.00,30.0,29.0,00.0,39.1,31.6,07.5,0005.0,0027.66,0009.50,0007.72
2021-11-23 00:59:00,,0829.2,5.00,0.00,30.0,29.0,00.0,39.1,31.6,07.5,0005.1,0027.77,0009.51,0007.71
